"Sample Date","Sample Time","Sample Value","Units","Flow Rate","Number Channels","Micron Size 0","Counts/Channel 0","Micron Size 1","Counts/Channel 1","Micron Size 2","Counts/Channel 2","Micron Size 3","Counts/Channel 3","Micron Size 4","Counts/Channel 4","Micron Size 5","Counts/Channel 5","Micron Size 6","Counts/Channel 6","Micron Size 7","Counts/Channel 7","Micron Size 8","Counts/Channel 8","Micron Size 9","Counts/Channel 9","Micron Size 10","Counts/Channel 10","Micron Size 11","Counts/Channel 11","Micron Size 12","Counts/Channel 12","Micron Size 13","Counts/Channel 13","Micron Size 14","Counts/Channel 14","Micron Size 15","Counts/Channel 15","Micron Size 16","Counts/Channel 16","Micron Size 17","Counts/Channel 17","Micron Size 18","Counts/Channel 18","Micron Size 19","Counts/Channel 19","Micron Size 20","Counts/Channel 20","Micron Size 21","Counts/Channel 21","Micron Size 22","Counts/Channel 22","Micron Size 23","Counts/Channel 23","Micron Size 24","Counts/Channel 24","Micron Size 25","Counts/Channel 25","Micron Size 26","Counts/Channel 26","Micron Size 27","Counts/Channel 27","Micron Size 28","Counts/Channel 28","Micron Size 29","Counts/Channel 29","Micron Size 30","Counts/Channel 30","Micron Size 31","Counts/Channel 31"
"05/07/08","17:00:01",1278.000,"cc",28346.500,6,0.100,1031.000,0.200,228.000,0.300,14.000,0.500,5.000,1.000,0,5.000,0
"05/07/08","17:00:07",1264.000,"cc",28306.803,6,0.100,1029.000,0.200,216.000,0.300,16.000,0.500,3.000,1.000,0,5.000,0
"05/07/08","17:00:13",1173.000,"cc",28315.879,6,0.100,962.000,0.200,189.000,0.300,18.000,0.500,4.000,1.000,0,5.000,0
"05/07/08","17:00:19",1236.000,"cc",28290.145,6,0.100,988.000,0.200,229.000,0.300,16.000,0.500,3.000,1.000,0,5.000,0
"05/07/08","17:00:25",1216.000,"cc",28334.811,6,0.100,1011.000,0.200,195.000,0.300,9.000,0.500,1.000,1.000,0,5.000,0
"05/07/08","17:00:31",1295.000,"cc",28368.666,6,0.100,1039.000,0.200,243.000,0.300,10.000,0.500,3.000,1.000,0,5.000,0
"05/07/08","17:00:37",1238.000,"cc",28334.242,6,0.100,1003.000,0.200,220.000,0.300,11.000,0.500,4.000,1.000,0,5.000,0
"05/07/08","17:00:43",1239.000,"cc",28257.217,6,0.100,988.000,0.200,231.000,0.300,16.000,0.500,4.000,1.000,0,5.000,0
"05/07/08","17:00:49",1288.000,"cc",28263.223,6,0.100,1031.000,0.200,233.000,0.300,17.000,0.500,7.000,1.000,0,5.000,0
"05/07/08","17:00:55",1286.000,"cc",28305.186,6,0.100,1046.000,0.200,221.000,0.300,19.000,0.500,0,1.000,0,5.000,0
"05/07/08","17:01:01",1221.000,"cc",28326.041,6,0.100,988.000,0.200,219.000,0.300,13.000,0.500,1.000,1.000,0,5.000,0
"05/07/08","17:01:07",1286.000,"cc",28310.160,6,0.100,1031.000,0.200,234.000,0.300,19.000,0.500,2.000,1.000,0,5.000,0
"05/07/08","17:01:13",1257.000,"cc",28312.484,6,0.100,1013.000,0.200,225.000,0.300,15.000,0.500,4.000,1.000,0,5.000,0
"05/07/08","17:01:19",1302.000,"cc",28349.701,6,0.100,1077.000,0.200,202.000,0.300,18.000,0.500,3.000,1.000,2.000,5.000,0
"05/07/08","17:01:25",1213.000,"cc",28248.834,6,0.100,975.000,0.200,225.000,0.300,11.000,0.500,2.000,1.000,0,5.000,0
"05/07/08","17:01:31",1183.000,"cc",28323.494,6,0.100,960.000,0.200,209.000,0.300,14.000,0.500,0,1.000,0,5.000,0
"05/07/08","17:01:37",1299.000,"cc",28333.719,6,0.100,1052.000,0.200,232.000,0.300,13.000,0.500,2.000,1.000,0,5.000,0
"05/07/08","17:01:43",1246.000,"cc",28359.691,6,0.100,1009.000,0.200,215.000,0.300,18.000,0.500,3.000,1.000,1.000,5.000,0
"05/07/08","17:01:49",1157.000,"cc",28281.522,6,0.100,928.000,0.200,216.000,0.300,12.000,0.500,1.000,1.000,0,5.000,0
"05/07/08","17:01:55",1347.000,"cc",28302.088,6,0.100,1097.000,0.200,235.000,0.300,13.000,0.500,2.000,1.000,0,5.000,0
"05/07/08","17:02:01",1212.000,"cc",28294.615,6,0.100,984.000,0.200,208.000,0.300,14.000,0.500,6.000,1.000,0,5.000,0
"05/07/08","17:02:07",1231.000,"cc",28306.029,6,0.100,1002.000,0.200,217.000,0.300,7.000,0.500,5.000,1.000,0,5.000,0
"05/07/08","17:02:13",1177.000,"cc",28354.693,6,0.100,948.000,0.200,204.000,0.300,18.000,0.500,7.000,1.000,0,5.000,0
"05/07/08","17:02:19",1244.000,"cc",28373.512,6,0.100,1003.000,0.200,225.000,0.300,14.000,0.500,2.000,1.000,0,5.000,0
"05/07/08","17:02:25",1227.000,"cc",28348.799,6,0.100,962.000,0.200,243.000,0.300,17.000,0.500,4.000,1.000,1.000,5.000,0
"05/07/08","17:02:31",1262.000,"cc",28243.340,6,0.100,1026.000,0.200,210.000,0.300,21.000,0.500,4.000,1.000,1.000,5.000,0
"05/07/08","17:02:37",1231.000,"cc",28334.000,6,0.100,1017.000,0.200,198.000,0.300,14.000,0.500,2.000,1.000,0,5.000,0
"05/07/08","17:02:43",1247.000,"cc",28340.398,6,0.100,988.000,0.200,239.000,0.300,16.000,0.500,3.000,1.000,1.000,5.000,0
"05/07/08","17:02:49",1189.000,"cc",28344.613,6,0.100,962.000,0.200,212.000,0.300,12.000,0.500,3.000,1.000,0,5.000,0
"05/07/08","17:02:55",1230.000,"cc",28269.164,6,0.100,1016.000,0.200,197.000,0.300,13.000,0.500,4.000,1.000,0,5.000,0
"05/07/08","17:03:01",1281.000,"cc",28289.578,6,0.100,1022.000,0.200,241.000,0.300,14.000,0.500,4.000,1.000,0,5.000,0
"05/07/08","17:03:07",1264.000,"cc",28352.789,6,0.100,1016.000,0.200,234.000,0.300,9.000,0.500,5.000,1.000,0,5.000,0
"05/07/08","17:03:13",1339.000,"cc",28271.988,6,0.100,1109.000,0.200,219.000,0.300,11.000,0.500,0,1.000,0,5.000,0
"05/07/08","17:03:19",1267.000,"cc",28351.168,6,0.100,1023.000,0.200,234.000,0.300,8.000,0.500,1.000,1.000,1.000,5.000,0
"05/07/08","17:03:25",1286.000,"cc",28280.967,6,0.100,1031.000,0.200,233.000,0.300,22.000,0.500,0,1.000,0,5.000,0
"05/07/08","17:03:31",1319.000,"cc",28359.508,6,0.100,1077.000,0.200,223.000,0.300,13.000,0.500,5.000,1.000,1.000,5.000,0
"05/07/08","17:03:37",1394.000,"cc",28280.367,6,0.100,1133.000,0.200,241.000,0.300,17.000,0.500,2.000,1.000,1.000,5.000,0
"05/07/08","17:03:43",1419.000,"cc",28290.477,6,0.100,1127.000,0.200,260.000,0.300,24.000,0.500,7.000,1.000,1.000,5.000,0
"05/07/08","17:03:49",1244.000,"cc",28402.211,6,0.100,1010.000,0.200,220.000,0.300,13.000,0.500,1.000,1.000,0,5.000,0
"05/07/08","17:03:55",1270.000,"cc",28273.961,6,0.100,1017.000,0.200,237.000,0.300,13.000,0.500,3.000,1.000,0,5.000,0
"05/07/08","17:04:01",1273.000,"cc",28362.719,6,0.100,1038.000,0.200,218.000,0.300,16.000,0.500,0,1.000,1.000,5.000,0
"05/07/08","17:04:07",1330.000,"cc",28257.441,6,0.100,1059.000,0.200,246.000,0.300,17.000,0.500,8.000,1.000,0,5.000,0
"05/07/08","17:04:13",1396.000,"cc",28307.145,6,0.100,1127.000,0.200,255.000,0.300,11.000,0.500,3.000,1.000,0,5.000,0
"05/07/08","17:04:19",1370.000,"cc",28358.715,6,0.100,1121.000,0.200,236.000,0.300,9.000,0.500,4.000,1.000,0,5.000,0
"05/07/08","17:04:25",1354.000,"cc",28288.072,6,0.100,1095.000,0.200,236.000,0.300,15.000,0.500,7.000,1.000,1.000,5.000,0
"05/07/08","17:04:31",1380.000,"cc",28341.869,6,0.100,1137.000,0.200,225.000,0.300,16.000,0.500,2.000,1.000,0,5.000,0
"05/07/08","17:04:37",1386.000,"cc",28330.133,6,0.100,1131.000,0.200,244.000,0.300,9.000,0.500,1.000,1.000,1.000,5.000,0
"05/07/08","17:04:43",1343.000,"cc",28318.422,6,0.100,1089.000,0.200,235.000,0.300,14.000,0.500,4.000,1.000,1.000,5.000,0
"05/07/08","17:04:49",1384.000,"cc",28227.162,6,0.100,1094.000,0.200,269.000,0.300,19.000,0.500,2.000,1.000,0,5.000,0
"05/07/08","17:04:55",1332.000,"cc",28284.818,6,0.100,1027.000,0.200,288.000,0.300,12.000,0.500,4.000,1.000,1.000,5.000,0
"05/07/08","17:05:01",1344.000,"cc",28298.211,6,0.100,1073.000,0.200,247.000,0.300,24.000,0.500,0,1.000,0,5.000,0
"05/07/08","17:05:07",1431.000,"cc",28367.145,6,0.100,1164.000,0.200,253.000,0.300,11.000,0.500,2.000,1.000,1.000,5.000,0
"05/07/08","17:05:13",1335.000,"cc",28356.816,6,0.100,1084.000,0.200,238.000,0.300,12.000,0.500,1.000,1.000,0,5.000,0
"05/07/08","17:05:19",1376.000,"cc",28338.074,6,0.100,1128.000,0.200,233.000,0.300,11.000,0.500,4.000,1.000,0,5.000,0
"05/07/08","17:05:25",1370.000,"cc",28334.500,6,0.100,1145.000,0.200,203.000,0.300,16.000,0.500,5.000,1.000,1.000,5.000,0
"05/07/08","17:05:31",1249.000,"cc",28299.061,6,0.100,999.000,0.200,233.000,0.300,16.000,0.500,1.000,1.000,0,5.000,0
"05/07/08","17:05:37",1333.000,"cc",28358.701,6,0.100,1072.000,0.200,240.000,0.300,18.000,0.500,1.000,1.000,2.000,5.000,0
"05/07/08","17:05:43",1387.000,"cc",28310.211,6,0.100,1156.000,0.200,209.000,0.300,17.000,0.500,4.000,1.000,1.000,5.000,0
"05/07/08","17:05:49",1396.000,"cc",28277.293,6,0.100,1118.000,0.200,261.000,0.300,10.000,0.500,5.000,1.000,2.000,5.000,0
"05/07/08","17:05:55",1353.000,"cc",28304.717,6,0.100,1077.000,0.200,259.000,0.300,14.000,0.500,3.000,1.000,0,5.000,0
"05/07/08","17:06:01",1343.000,"cc",28341.250,6,0.100,1098.000,0.200,233.000,0.300,9.000,0.500,2.000,1.000,1.000,5.000,0
"05/07/08","17:06:07",1386.000,"cc",28297.357,6,0.100,1088.000,0.200,279.000,0.300,16.000,0.500,3.000,1.000,0,5.000,0
"05/07/08","17:06:13",1417.000,"cc",28362.484,6,0.100,1139.000,0.200,251.000,0.300,27.000,0.500,0,1.000,0,5.000,0
"05/07/08","17:06:19",1429.000,"cc",28279.586,6,0.100,1171.000,0.200,235.000,0.300,19.000,0.500,4.000,1.000,0,5.000,0
"05/07/08","17:06:25",1388.000,"cc",28297.516,6,0.100,1121.000,0.200,247.000,0.300,18.000,0.500,2.000,1.000,0,5.000,0
"05/07/08","17:06:31",1262.000,"cc",28305.565,6,0.100,1010.000,0.200,231.000,0.300,17.000,0.500,3.000,1.000,1.000,5.000,0
"05/07/08","17:06:37",1363.000,"cc",28354.883,6,0.100,1102.000,0.200,237.000,0.300,20.000,0.500,4.000,1.000,0,5.000,0
"05/07/08","17:06:43",1287.000,"cc",28315.121,6,0.100,1055.000,0.200,209.000,0.300,21.000,0.500,2.000,1.000,0,5.000,0
"05/07/08","17:06:49",1344.000,"cc",28309.479,6,0.100,1084.000,0.200,242.000,0.300,14.000,0.500,4.000,1.000,0,5.000,0
"05/07/08","17:06:55",1353.000,"cc",28266.248,6,0.100,1092.000,0.200,237.000,0.300,19.000,0.500,4.000,1.000,1.000,5.000,0
"05/07/08","17:07:01",1367.000,"cc",28239.219,6,0.100,1092.000,0.200,255.000,0.300,14.000,0.500,4.000,1.000,2.000,5.000,0
"05/07/08","17:07:07",1356.000,"cc",28334.402,6,0.100,1105.000,0.200,233.000,0.300,14.000,0.500,3.000,1.000,1.000,5.000,0
"05/07/08","17:07:13",1285.000,"cc",28349.647,6,0.100,1051.000,0.200,216.000,0.300,13.000,0.500,5.000,1.000,0,5.000,0
"05/07/08","17:07:19",1346.000,"cc",28354.459,6,0.100,1086.000,0.200,233.000,0.300,19.000,0.500,7.000,1.000,1.000,5.000,0
"05/07/08","17:07:25",1374.000,"cc",28272.842,6,0.100,1093.000,0.200,258.000,0.300,20.000,0.500,3.000,1.000,0,5.000,0
"05/07/08","17:07:31",1356.000,"cc",28339.336,6,0.100,1089.000,0.200,249.000,0.300,14.000,0.500,3.000,1.000,1.000,5.000,0
"05/07/08","17:07:37",1325.000,"cc",28314.537,6,0.100,1068.000,0.200,239.000,0.300,15.000,0.500,2.000,1.000,1.000,5.000,0
"05/07/08","17:07:43",1321.000,"cc",28315.951,6,0.100,1061.000,0.200,236.000,0.300,19.000,0.500,4.000,1.000,1.000,5.000,0
"05/07/08","17:07:49",1451.000,"cc",28299.705,6,0.100,1171.000,0.200,255.000,0.300,22.000,0.500,3.000,1.000,0,5.000,0
"05/07/08","17:07:55",1350.000,"cc",28334.225,6,0.100,1091.000,0.200,240.000,0.300,15.000,0.500,4.000,1.000,0,5.000,0
"05/07/08","17:08:01",1434.000,"cc",28404.652,6,0.100,1149.000,0.200,265.000,0.300,12.000,0.500,7.000,1.000,1.000,5.000,0
"05/07/08","17:08:07",1409.000,"cc",28321.121,6,0.100,1150.000,0.200,246.000,0.300,12.000,0.500,1.000,1.000,0,5.000,0
"05/07/08","17:08:13",1405.000,"cc",28260.424,6,0.100,1135.000,0.200,253.000,0.300,13.000,0.500,4.000,1.000,0,5.000,0
"05/07/08","17:08:19",1349.000,"cc",28274.652,6,0.100,1084.000,0.200,247.000,0.300,14.000,0.500,3.000,1.000,1.000,5.000,0
"05/07/08","17:08:25",1283.000,"cc",28360.770,6,0.100,1048.000,0.200,219.000,0.300,14.000,0.500,2.000,1.000,0,5.000,0
"05/07/08","17:08:31",1305.000,"cc",28297.068,6,0.100,1049.000,0.200,235.000,0.300,14.000,0.500,7.000,1.000,0,5.000,0
"05/07/08","17:08:37",1323.000,"cc",28321.648,6,0.100,1062.000,0.200,243.000,0.300,16.000,0.500,1.000,1.000,1.000,5.000,0
"05/07/08","17:08:43",1355.000,"cc",28265.992,6,0.100,1110.000,0.200,230.000,0.300,13.000,0.500,2.000,1.000,0,5.000,0
"05/07/08","17:08:49",1345.000,"cc",28284.887,6,0.100,1089.000,0.200,238.000,0.300,15.000,0.500,2.000,1.000,1.000,5.000,0
"05/07/08","17:08:55",1373.000,"cc",28411.432,6,0.100,1116.000,0.200,234.000,0.300,19.000,0.500,3.000,1.000,1.000,5.000,0
"05/07/08","17:09:01",1328.000,"cc",28381.514,6,0.100,1095.000,0.200,213.000,0.300,16.000,0.500,4.000,1.000,0,5.000,0
"05/07/08","17:09:07",1225.000,"cc",28285.297,6,0.100,979.000,0.200,225.000,0.300,15.000,0.500,5.000,1.000,1.000,5.000,0
"05/07/08","17:09:13",1209.000,"cc",28250.611,6,0.100,962.000,0.200,220.000,0.300,22.000,0.500,5.000,1.000,0,5.000,0
"05/07/08","17:09:19",1150.000,"cc",28271.647,6,0.100,933.000,0.200,200.000,0.300,15.000,0.500,2.000,1.000,0,5.000,0
"05/07/08","17:09:25",1191.000,"cc",28287.938,6,0.100,961.000,0.200,215.000,0.300,12.000,0.500,3.000,1.000,0,5.000,0
"05/07/08","17:09:31",1196.000,"cc",28359.018,6,0.100,964.000,0.200,210.000,0.300,19.000,0.500,3.000,1.000,0,5.000,0
"05/07/08","17:09:37",1230.000,"cc",28289.824,6,0.100,973.000,0.200,241.000,0.300,12.000,0.500,3.000,1.000,1.000,5.000,0
"05/07/08","17:09:43",1191.000,"cc",28328.297,6,0.100,962.000,0.200,204.000,0.300,20.000,0.500,4.000,1.000,1.000,5.000,0
"05/07/08","17:09:49",1225.000,"cc",28331.461,6,0.100,987.000,0.200,223.000,0.300,12.000,0.500,3.000,1.000,0,5.000,0
"05/07/08","17:09:55",1156.000,"cc",28300.723,6,0.100,932.000,0.200,207.000,0.300,15.000,0.500,2.000,1.000,0,5.000,0
"05/07/08","17:10:01",1185.000,"cc",28363.529,6,0.100,946.000,0.200,218.000,0.300,18.000,0.500,3.000,1.000,0,5.000,0
"05/07/08","17:10:07",1163.000,"cc",28375.738,6,0.100,932.000,0.200,209.000,0.300,16.000,0.500,6.000,1.000,0,5.000,0
"05/07/08","17:10:13",1208.000,"cc",28273.201,6,0.100,968.000,0.200,222.000,0.300,16.000,0.500,2.000,1.000,0,5.000,0
"05/07/08","17:10:19",1132.000,"cc",28318.432,6,0.100,910.000,0.200,206.000,0.300,15.000,0.500,1.000,1.000,0,5.000,0
"05/07/08","17:10:25",1206.000,"cc",28298.822,6,0.100,953.000,0.200,236.000,0.300,13.000,0.500,3.000,1.000,1.000,5.000,0
"05/07/08","17:10:31",1236.000,"cc",28308.559,6,0.100,1011.000,0.200,212.000,0.300,10.000,0.500,3.000,1.000,0,5.000,0
"05/07/08","17:10:37",1246.000,"cc",28353.856,6,0.100,1000.000,0.200,223.000,0.300,19.000,0.500,3.000,1.000,1.000,5.000,0
"05/07/08","17:10:43",1181.000,"cc",28298.984,6,0.100,955.000,0.200,215.000,0.300,8.000,0.500,3.000,1.000,0,5.000,0
"05/07/08","17:10:49",1145.000,"cc",28298.432,6,0.100,912.000,0.200,217.000,0.300,13.000,0.500,2.000,1.000,1.000,5.000,0
"05/07/08","17:10:55",1090.000,"cc",28263.647,6,0.100,869.000,0.200,194.000,0.300,24.000,0.500,3.000,1.000,0,5.000,0
"05/07/08","17:11:01",1075.000,"cc",28329.063,6,0.100,837.000,0.200,225.000,0.300,11.000,0.500,1.000,1.000,1.000,5.000,0
"05/07/08","17:11:07",1086.000,"cc",28356.977,6,0.100,853.000,0.200,210.000,0.300,19.000,0.500,4.000,1.000,0,5.000,0
"05/07/08","17:11:13",1053.000,"cc",28320.580,6,0.100,855.000,0.200,178.000,0.300,16.000,0.500,4.000,1.000,0,5.000,0
"05/07/08","17:11:19",1042.000,"cc",28298.408,6,0.100,830.000,0.200,197.000,0.300,11.000,0.500,3.000,1.000,1.000,5.000,0
"05/07/08","17:11:25",1049.000,"cc",28308.445,6,0.100,829.000,0.200,202.000,0.300,16.000,0.500,2.000,1.000,0,5.000,0
"05/07/08","17:11:31",1115.000,"cc",28274.578,6,0.100,878.000,0.200,215.000,0.300,21.000,0.500,1.000,1.000,0,5.000,0
"05/07/08","17:11:37",1122.000,"cc",28337.518,6,0.100,888.000,0.200,220.000,0.300,13.000,0.500,1.000,1.000,0,5.000,0
"05/07/08","17:11:43",1042.000,"cc",28344.492,6,0.100,825.000,0.200,202.000,0.300,12.000,0.500,3.000,1.000,0,5.000,0
"05/07/08","17:11:49",978.000,"cc",28333.512,6,0.100,773.000,0.200,193.000,0.300,12.000,0.500,0,1.000,0,5.000,0
"05/07/08","17:11:55",983.000,"cc",28325.102,6,0.100,781.000,0.200,185.000,0.300,13.000,0.500,4.000,1.000,0,5.000,0
"05/07/08","17:12:01",1088.000,"cc",28341.690,6,0.100,888.000,0.200,183.000,0.300,16.000,0.500,1.000,1.000,0,5.000,0
"05/07/08","17:12:07",1037.000,"cc",28324.068,6,0.100,827.000,0.200,190.000,0.300,16.000,0.500,4.000,1.000,0,5.000,0
"05/07/08","17:12:13",1061.000,"cc",28282.371,6,0.100,835.000,0.200,198.000,0.300,24.000,0.500,4.000,1.000,0,5.000,0
"05/07/08","17:12:19",1067.000,"cc",28321.869,6,0.100,853.000,0.200,197.000,0.300,17.000,0.500,0,1.000,0,5.000,0
"05/07/08","17:12:25",1104.000,"cc",28319.590,6,0.100,864.000,0.200,218.000,0.300,18.000,0.500,3.000,1.000,1.000,5.000,0
"05/07/08","17:12:31",1085.000,"cc",28320.522,6,0.100,873.000,0.200,191.000,0.300,15.000,0.500,6.000,1.000,0,5.000,0
"05/07/08","17:12:37",1057.000,"cc",28299.834,6,0.100,883.000,0.200,159.000,0.300,14.000,0.500,1.000,1.000,0,5.000,0
"05/07/08","17:12:43",1046.000,"cc",28279.961,6,0.100,840.000,0.200,198.000,0.300,6.000,0.500,2.000,1.000,0,5.000,0
"05/07/08","17:12:49",1026.000,"cc",28358.877,6,0.100,821.000,0.200,185.000,0.300,16.000,0.500,4.000,1.000,0,5.000,0
"05/07/08","17:12:55",1059.000,"cc",28318.334,6,0.100,844.000,0.200,198.000,0.300,13.000,0.500,3.000,1.000,1.000,5.000,0
"05/07/08","17:13:01",1030.000,"cc",28304.461,6,0.100,809.000,0.200,212.000,0.300,9.000,0.500,0,1.000,0,5.000,0
"05/07/08","17:13:07",1077.000,"cc",28349.223,6,0.100,856.000,0.200,202.000,0.300,16.000,0.500,3.000,1.000,0,5.000,0
"05/07/08","17:13:13",1052.000,"cc",28257.348,6,0.100,834.000,0.200,199.000,0.300,13.000,0.500,4.000,1.000,2.000,5.000,0
"05/07/08","17:13:19",1093.000,"cc",28317.986,6,0.100,869.000,0.200,200.000,0.300,19.000,0.500,4.000,1.000,1.000,5.000,0
"05/07/08","17:13:25",1044.000,"cc",28336.736,6,0.100,813.000,0.200,201.000,0.300,26.000,0.500,3.000,1.000,1.000,5.000,0
"05/07/08","17:13:31",1009.000,"cc",28346.703,6,0.100,802.000,0.200,182.000,0.300,21.000,0.500,3.000,1.000,1.000,5.000,0
"05/07/08","17:13:37",1113.000,"cc",28308.656,6,0.100,894.000,0.200,201.000,0.300,16.000,0.500,2.000,1.000,0,5.000,0
"05/07/08","17:13:43",1109.000,"cc",28251.338,6,0.100,879.000,0.200,211.000,0.300,12.000,0.500,6.000,1.000,0,5.000,1.000
"05/07/08","17:13:49",1032.000,"cc",28269.902,6,0.100,819.000,0.200,194.000,0.300,15.000,0.500,4.000,1.000,0,5.000,0
"05/07/08","17:13:55",1003.000,"cc",28366.693,6,0.100,778.000,0.200,208.000,0.300,14.000,0.500,3.000,1.000,0,5.000,0
"05/07/08","17:14:01",954.000,"cc",28342.299,6,0.100,769.000,0.200,165.000,0.300,15.000,0.500,4.000,1.000,1.000,5.000,0
"05/07/08","17:14:07",923.000,"cc",28297.000,6,0.100,721.000,0.200,187.000,0.300,13.000,0.500,2.000,1.000,0,5.000,0
"05/07/08","17:14:13",954.000,"cc",28315.777,6,0.100,758.000,0.200,176.000,0.300,15.000,0.500,4.000,1.000,1.000,5.000,0
"05/07/08","17:14:19",1018.000,"cc",28296.969,6,0.100,822.000,0.200,180.000,0.300,11.000,0.500,5.000,1.000,0,5.000,0
"05/07/08","17:14:25",999.000,"cc",28333.475,6,0.100,780.000,0.200,197.000,0.300,20.000,0.500,1.000,1.000,1.000,5.000,0
"05/07/08","17:14:31",1014.000,"cc",28320.059,6,0.100,783.000,0.200,209.000,0.300,15.000,0.500,7.000,1.000,0,5.000,0
"05/07/08","17:14:37",927.000,"cc",28375.279,6,0.100,735.000,0.200,172.000,0.300,16.000,0.500,4.000,1.000,0,5.000,0
"05/07/08","17:14:43",1034.000,"cc",28331.592,6,0.100,829.000,0.200,188.000,0.300,14.000,0.500,2.000,1.000,1.000,5.000,0
"05/07/08","17:14:49",1034.000,"cc",28380.498,6,0.100,797.000,0.200,210.000,0.300,20.000,0.500,6.000,1.000,1.000,5.000,0
"05/07/08","17:14:55",1007.000,"cc",28282.445,6,0.100,811.000,0.200,182.000,0.300,11.000,0.500,3.000,1.000,0,5.000,0
"05/07/08","17:15:01",989.000,"cc",28314.037,6,0.100,795.000,0.200,173.000,0.300,20.000,0.500,1.000,1.000,0,5.000,0
"05/07/08","17:15:07",1018.000,"cc",28304.129,6,0.100,765.000,0.200,231.000,0.300,18.000,0.500,4.000,1.000,0,5.000,0
"05/07/08","17:15:13",993.000,"cc",28287.244,6,0.100,799.000,0.200,170.000,0.300,21.000,0.500,2.000,1.000,1.000,5.000,0
"05/07/08","17:15:19",1012.000,"cc",28230.670,6,0.100,806.000,0.200,179.000,0.300,19.000,0.500,7.000,1.000,1.000,5.000,0
"05/07/08","17:15:25",962.000,"cc",28311.885,6,0.100,752.000,0.200,191.000,0.300,13.000,0.500,6.000,1.000,0,5.000,0
"05/07/08","17:15:31",1014.000,"cc",28325.633,6,0.100,801.000,0.200,189.000,0.300,18.000,0.500,4.000,1.000,2.000,5.000,0
"05/07/08","17:15:37",983.000,"cc",28351.061,6,0.100,780.000,0.200,189.000,0.300,12.000,0.500,1.000,1.000,1.000,5.000,0
"05/07/08","17:15:43",1026.000,"cc",28339.850,6,0.100,823.000,0.200,184.000,0.300,14.000,0.500,5.000,1.000,0,5.000,0
"05/07/08","17:15:49",958.000,"cc",28361.529,6,0.100,773.000,0.200,167.000,0.300,13.000,0.500,4.000,1.000,1.000,5.000,0
"05/07/08","17:15:55",970.000,"cc",28330.924,6,0.100,773.000,0.200,176.000,0.300,17.000,0.500,4.000,1.000,0,5.000,0
"05/07/08","17:16:01",978.000,"cc",28255.547,6,0.100,796.000,0.200,168.000,0.300,12.000,0.500,2.000,1.000,0,5.000,0
"05/07/08","17:16:07",980.000,"cc",28310.600,6,0.100,748.000,0.200,210.000,0.300,18.000,0.500,4.000,1.000,0,5.000,0
"05/07/08","17:16:13",1005.000,"cc",28319.783,6,0.100,781.000,0.200,209.000,0.300,12.000,0.500,2.000,1.000,1.000,5.000,0
"05/07/08","17:16:19",995.000,"cc",28246.035,6,0.100,791.000,0.200,187.000,0.300,12.000,0.500,5.000,1.000,0,5.000,0
"05/07/08","17:16:25",947.000,"cc",28354.232,6,0.100,751.000,0.200,180.000,0.300,14.000,0.500,2.000,1.000,0,5.000,0
"05/07/08","17:16:31",943.000,"cc",28319.811,6,0.100,752.000,0.200,180.000,0.300,9.000,0.500,1.000,1.000,1.000,5.000,0
"05/07/08","17:16:37",994.000,"cc",28330.918,6,0.100,793.000,0.200,188.000,0.300,11.000,0.500,2.000,1.000,0,5.000,0
"05/07/08","17:16:43",970.000,"cc",28325.840,6,0.100,773.000,0.200,173.000,0.300,22.000,0.500,2.000,1.000,0,5.000,0
"05/07/08","17:16:49",975.000,"cc",28317.109,6,0.100,756.000,0.200,201.000,0.300,16.000,0.500,1.000,1.000,1.000,5.000,0
"05/07/08","17:16:55",1014.000,"cc",28291.004,6,0.100,790.000,0.200,198.000,0.300,20.000,0.500,6.000,1.000,0,5.000,0
"05/07/08","17:17:01",977.000,"cc",28308.057,6,0.100,775.000,0.200,186.000,0.300,14.000,0.500,2.000,1.000,0,5.000,0
"05/07/08","17:17:07",940.000,"cc",28363.115,6,0.100,737.000,0.200,182.000,0.300,19.000,0.500,2.000,1.000,0,5.000,0
"05/07/08","17:17:13",8220.000,"cc",27336.381,6,0.100,5492.000,0.200,1535.000,0.300,544.000,0.500,338.000,1.000,138.000,5.000,173.000
"05/07/08","17:17:19",1443.000,"cc",26740.865,6,0.100,1064.000,0.200,280.000,0.300,56.000,0.500,36.000,1.000,7.000,5.000,0
"05/07/08","17:17:25",973.000,"cc",26917.834,6,0.100,793.000,0.200,155.000,0.300,14.000,0.500,11.000,1.000,0,5.000,0
"05/07/08","17:17:31",976.000,"cc",26913.490,6,0.100,768.000,0.200,191.000,0.300,10.000,0.500,7.000,1.000,0,5.000,0
"05/07/08","17:17:37",918.000,"cc",26941.174,6,0.100,712.000,0.200,188.000,0.300,13.000,0.500,5.000,1.000,0,5.000,0
"05/07/08","17:17:43",990.000,"cc",26917.898,6,0.100,793.000,0.200,184.000,0.300,10.000,0.500,3.000,1.000,0,5.000,0
"05/07/08","17:17:49",992.000,"cc",26952.859,6,0.100,787.000,0.200,186.000,0.300,14.000,0.500,3.000,1.000,2.000,5.000,0
"05/07/08","17:17:55",974.000,"cc",27074.576,6,0.100,782.000,0.200,176.000,0.300,14.000,0.500,1.000,1.000,1.000,5.000,0
"05/07/08","17:18:01",1006.000,"cc",27179.861,6,0.100,793.000,0.200,199.000,0.300,9.000,0.500,2.000,1.000,3.000,5.000,0
"05/07/08","17:18:07",1044.000,"cc",27465.217,6,0.100,827.000,0.200,205.000,0.300,8.000,0.500,4.000,1.000,0,5.000,0
"05/07/08","17:18:13",1004.000,"cc",27894.195,6,0.100,802.000,0.200,185.000,0.300,10.000,0.500,6.000,1.000,1.000,5.000,0
"05/07/08","17:18:19",940.000,"cc",28421.104,6,0.100,745.000,0.200,175.000,0.300,17.000,0.500,2.000,1.000,1.000,5.000,0
"05/07/08","17:18:25",925.000,"cc",28716.619,6,0.100,735.000,0.200,175.000,0.300,12.000,0.500,3.000,1.000,0,5.000,0
"05/07/08","17:18:31",994.000,"cc",28652.119,6,0.100,787.000,0.200,193.000,0.300,13.000,0.500,1.000,1.000,0,5.000,0
"05/07/08","17:18:37",935.000,"cc",28710.066,6,0.100,717.000,0.200,204.000,0.300,12.000,0.500,2.000,1.000,0,5.000,0
"05/07/08","17:18:43",1010.000,"cc",28776.170,6,0.100,798.000,0.200,197.000,0.300,15.000,0.500,0,1.000,0,5.000,0
"05/07/08","17:18:49",925.000,"cc",28748.926,6,0.100,736.000,0.200,166.000,0.300,20.000,0.500,1.000,1.000,2.000,5.000,0
"05/07/08","17:18:55",997.000,"cc",28671.283,6,0.100,802.000,0.200,173.000,0.300,20.000,0.500,2.000,1.000,0,5.000,0